Flag for U.S.A. Weather past 2 weeks in Youngstown, Ohio, U.S.A.

Now
29 °F

Overcast.


Feels Like: 23 °F
Forecast: 24 / 33 °F
Wind: 6 mph from Northwest

Location: Youngstown-Warren Regional Airport

Current Time: Dec 19, 2014 at 6:37:12 PM

Latest Report: Dec 19, 2014 at 5:51 PM


Visibility: 10 mi

Pressure: 30.27 "Hg

Humidity: 72%

Dew point: 21 °F

Location of YoungstownLocation

Historic Weather in Youngstown — Graph

°F

Youngstown temperature yesterday

Maximum temperature yesterday: 29 °F (at 12:51 PM)
Minimum temperature yesterday: 28 °F (at 12:51 AM)
Average temperature yesterday: 28 °F

Past Weeks' High & Low Weather Summary

 TemperatureHumidityPressure
High50 °F (Dec 16, 12:51 PM)100% (Dec 5, 11:51 PM)30.66 "Hg (Dec 5, 11:51 PM)
Low26 °F (Dec 4, 9:51 PM)34% (Dec 8, 11:51 AM)29.71 "Hg (Dec 16, 1:51 PM)
Average35 °F81%30.15 "Hg
* Reported Dec 4 4:51 PM — Dec 19 4:51 PM, Youngstown, Weather by CustomWeather, © 2014

Note: Actual official high and low records may vary slightly from our data, if they occured in-between our weather recording intervals... More about our weather records

Advertising

Youngstown weather history for previous 24 hours

 ConditionsComfort  
Time TempWeatherWind HumidityBarometerVisibility
4:51 PM
Dec 19
30 °FOvercast.6 mph69%30.27 "Hg10 mi
3:51 PM30 °FOvercast.7 mph75%30.24 "Hg10 mi
2:51 PM31 °FOvercast.6 mph69%30.23 "Hg10 mi
1:51 PM31 °FOvercast.9 mph69%30.22 "Hg10 mi
12:51 PM31 °FOvercast.7 mph76%30.23 "Hg10 mi
11:51 AM30 °FOvercast.7 mph79%30.23 "Hg10 mi
10:51 AM29 °FMore clouds than sun.7 mph85%30.24 "Hg10 mi
9:51 AM28 °FLight snow. More clouds than sun.6 mph93%30.24 "Hg9 mi
8:51 AM28 °FLight snow. Mostly cloudy.8 mph93%30.24 "Hg9 mi
7:51 AM28 °FLight snow. Mostly cloudy.8 mph93%30.22 "Hg9 mi
6:51 AM28 °FMostly cloudy.9 mph93%30.20 "Hg10 mi
5:51 AM29 °FLight snow. Low clouds.9 mph89%30.18 "Hg8 mi
4:51 AM29 °FLight snow. Ice fog.9 mph93%30.16 "Hg2 mi
3:51 AM29 °FLight snow. Ice fog.9 mph93%30.17 "Hg4 mi
2:51 AM29 °FLight freezing rain. Ice fog.8 mph93%30.16 "Hg4 mi
1:51 AM29 °FLight freezing rain. Ice fog.10 mph93%30.16 "Hg5 mi
12:51 AM28 °FLight freezing rain. Ice fog.8 mph96%30.16 "Hg4 mi
11:51 PM
Dec 18
28 °FLight freezing rain. Ice fog.9 mph93%30.16 "Hg2 mi
11:02 PM28 °FLight freezing rain. Ice fog.9 mph93%30.13 "Hg2 mi
9:51 PM28 °FLight freezing rain. Ice fog.9 mph93%30.16 "Hg5 mi
8:51 PM28 °FLight freezing rain. Overcast.8 mph89%30.17 "Hg8 mi
7:51 PM28 °FLight snow. Overcast.8 mph85%30.18 "Hg9 mi
6:51 PM28 °FLight snow. Overcast.7 mph81%30.18 "Hg7 mi
Weather by CustomWeather, © 2014

See weather overviewHow to use our weather pages